Location: Aulus
(42.7909°N, 1.3399°E)
Time: 19:35:43
(UTC+00:00)

Cosmos 2150 Rocket - Pass Details

Date: 19 May 2025
Orbit: 745 x 804 km, 74.0° (Epoch: 23 June)

Event Time Altitude Azimuth Distance (km) Brightness Sun altitude
Rises 21:34:38 0° 342° (NNW) 3,296 8.7 -19.8°
Reaches altitude 10° 21:37:03 10° 345° (NNW) 2,370 7.6 -20.1°
Maximum altitude 21:42:26 65° 68° (ENE) 878 4.2 -20.6°
Enters shadow 21:44:08 42° 132° (SE) 1,125 4.4 -20.8°
